Torna al catalogo

STARLINK-35961

AttivoComunicazioniVLEO
NORAD 66530·PAYLOAD·🇺🇸 United States

Lanciato Nov 19, 2025 da Cape Canaveral Space Force Station

Loading…

Prossimi Passaggi (prossime 24 ore)

TLE

AggiornatoSource: CelesTrak SupGP

Epoca: Sep 14, 2026, 23:06 UTC

1 66530C 25265Q   26257.96298611  .00026409  00000+0  95651-3 0  2570
2 66530  43.0007 289.1670 0001402 270.1566 270.1780 15.27566610    18

Traccia STARLINK-35961 in tempo reale con AllMySat

Download on the App Store